{"data":{"norad_id":58450,"epoch":"2026-05-24T19:02:56.399712Z","epoch_age_seconds":83015,"freshness":"FRESH","line1":"1 58450U 23183P   26144.79370833  .00001109  00000+0  49815-4 0  9997","line2":"2 58450  43.0022 331.8046 0001442 261.6080  98.4609 15.27575177138379","mean_motion":15.27575177,"eccentricity":0.0001442,"inclination_deg":43.0022,"raan_deg":331.8046,"arg_perigee_deg":261.608,"mean_anomaly_deg":98.4609,"bstar":4.9815e-5,"rev_number":13837,"period_min":94.267046341249,"perigee_km":482.07415275715,"apogee_km":484.05292299228,"semimajor_km":6861.2005378747,"source":"CELESTRAK","updated_at":"2026-05-25T13:38:18.624640Z"}}